FW5810 Weather Reports


time (UTC)temp
F
wind
direction
speed
knots
gust
knots
rain 1hr
in
rain 24hr
in
rain mn
in
humidity
%
barometer
mb
20260905123813 68 15 0.0 0.0 0.00 0.01 0.01 99 1014.6
20260905123310 68 15 0.0 0.0 0.00 0.01 0.01 99 1014.5
20260905122809 68 15 0.0 0.0 0.00 0.01 0.01 99 1014.6
20260905122309 68 15 0.0 0.0 0.00 0.01 0.01 99 1014.7
20260905121805 68 15 0.0 0.0 0.00 0.01 0.01 99 1014.6
20260905121301 68 15 0.0 0.9 0.00 0.01 0.01 99 1014.5
20260905120759 68 14 0.0 0.9 0.00 0.01 0.01 99 1014.5
20260905120300 68 14 0.0 0.0 0.00 0.01 0.01 99 1014.5
20260905115754 68 14 0.0 0.9 0.00 0.01 0.01 99 1014.5
20260905115249 68 15 0.0 0.0 0.00 0.01 0.01 99 1014.2
20260905114748 67 15 0.0 0.9 0.00 0.01 0.01 99 1014.4
20260905114247 67 343 0.0 0.0 0.00 0.01 0.01 99 1014.2
20260905113746 67 343 0.0 0.0 0.00 0.01 0.01 99 1014.3
20260905113243 67 343 0.0 0.9 0.00 0.01 0.01 99 1014.3
20260905112737 67 343 0.0 0.9 0.00 0.01 0.01 99 1014.0
20260905112232 67 343 0.0 0.0 0.00 0.01 0.01 99 1013.9
20260905111727 67 343 0.9 0.9 0.00 0.01 0.01 99 1014.1
20260905111221 67 342 0.0 0.9 0.00 0.01 0.01 99 1014.1
20260905110720 67 342 0.0 0.0 0.00 0.01 0.01 99 1014.2
20260905110215 67 341 0.9 0.9 0.00 0.01 0.01 99 1014.1
20260905105711 67 341 0.0 0.0 0.00 0.01 0.01 99 1014.0
20260905105209 67 341 0.0 0.0 0.00 0.01 0.01 99 1014.2
20260905104704 67 341 0.0 0.0 0.00 0.01 0.01 99 1014.2
20260905104200 67 341 0.0 0.0 0.05 0.01 0.01 99 1014.5
20260905103655 67 341 0.0 0.0 0.05 0.01 0.01 99 1014.5
20260905103151 67 339 0.9 0.9 0.00 0.00 0.00 99 1014.6
20260905102646 67 338 0.0 0.0 0.00 0.00 0.00 99 1014.7
20260905102143 67 338 0.0 0.0 0.00 0.00 0.00 99 1014.6
20260905101641 67 338 0.0 0.0 0.00 0.00 0.00 99 1014.7
20260905101140 67 338 0.0 0.0 0.00 0.00 0.00 99 1014.5
20260905100636 67 337 0.0 0.9 0.00 0.00 0.00 99 1014.5
20260905100131 67 30 0.9 0.9 0.00 0.00 0.00 99 1014.3
20260905095624 67 30 0.0 0.0 0.00 0.00 0.00 99 1014.1
20260905095120 67 30 0.9 0.9 0.00 0.00 0.00 99 1013.9
20260905094615 68 30 0.0 0.9 0.00 0.00 0.00 99 1014.0
20260905094114 68 30 0.0 0.0 0.00 0.00 0.00 99 1013.9
20260905093614 68 30 0.0 0.0 0.00 0.00 0.00 99 1013.9
20260905093111 68 30 0.0 0.0 0.00 0.00 0.00 99 1013.9
20260905092610 68 30 0.9 0.9 0.00 0.00 0.00 99 1013.7
20260905092107 67 30 0.0 0.0 0.00 0.00 0.00 99 1013.5
20260905091606 67 30 0.0 0.9 0.00 0.00 0.00 99 1013.4
20260905091100 67 30 0.0 0.0 0.00 0.00 0.00 99 1013.2
20260905090554 67 30 0.9 0.9 0.00 0.00 0.00 99 1013.5
20260905090050 67 30 0.0 0.0 0.00 0.00 0.00 99 1013.7
20260905085548 67 30 0.0 0.0 0.00 0.00 0.00 99 1013.8
20260905085044 67 30 0.0 0.0 0.00 0.00 0.00 99 1013.8
20260905084543 67 30 0.0 0.0 0.00 0.00 0.00 99 1013.4
20260905084039 67 30 0.0 0.0 0.00 0.00 0.00 99 1013.5
20260905083533 66 30 0.0 0.9 0.00 0.00 0.00 99 1013.0
20260905083030 66 30 0.0 0.0 0.00 0.00 0.00 99 1013.2
20260905082525 66 30 0.9 0.9 0.00 0.00 0.00 99 1013.0
20260905082021 66 30 0.0 0.0 0.00 0.00 0.00 99 1012.9
20260905081515 66 30 0.9 0.9 0.00 0.00 0.00 99 1012.9
20260905081015 65 30 0.0 0.0 0.00 0.00 0.00 99 1013.3
20260905080509 65 30 0.0 0.0 0.00 0.00 0.00 99 1013.4
20260905080004 65 30 0.0 0.0 0.00 0.00 0.00 99 1013.4
20260905075457 65 30 0.0 0.0 0.00 0.00 0.00 99 1013.3
20260905074955 65 30 0.0 0.0 0.00 0.00 0.00 99 1013.3
20260905074452 66 30 0.0 0.0 0.00 0.00 0.00 99 1013.2
20260905073947 66 30 0.0 0.0 0.00 0.00 0.00 99 1013.4
20260905073442 66 30 0.0 0.0 0.00 0.00 0.00 99 1013.4
20260905072938 66 30 0.0 0.0 0.00 0.00 0.00 99 1013.2
20260905072432 66 30 0.0 0.0 0.00 0.00 0.00 99 1013.3
20260905071928 66 30 0.0 0.0 0.00 0.00 0.00 99 1013.5
20260905071426 66 30 0.0 0.0 0.00 0.00 0.00 99 1013.5
20260905070924 66 30 0.0 0.0 0.00 0.00 0.00 99 1013.5
20260905070421 66 30 0.0 0.0 0.00 0.00 0.00 99 1013.2
20260905065920 66 30 0.0 0.0 0.00 0.00 0.00 99 1013.4
20260905065418 66 30 0.0 0.0 0.00 0.00 0.00 99 1013.7
20260905064914 66 30 0.0 0.0 0.00 0.00 0.00 99 1013.7
20260905064409 67 30 0.0 0.0 0.00 0.00 0.00 99 1013.7
20260905063908 67 30 0.0 0.0 0.00 0.00 0.00 99 1013.9
20260905063404 67 30 0.0 0.0 0.00 0.00 0.00 99 1014.0
20260905062900 67 30 0.0 0.9 0.00 0.00 0.00 99 1014.0
20260905062354 67 30 0.9 0.9 0.00 0.00 0.00 99 1014.1
20260905061849 67 30 0.0 0.0 0.00 0.00 0.00 99 1014.1
20260905061343 67 30 0.0 0.0 0.00 0.00 0.00 99 1014.1
20260905060838 67 30 0.0 0.0 0.00 0.00 0.00 99 1014.1
20260905060335 67 30 0.0 0.9 0.00 0.00 0.00 99 1014.3
20260905055833 67 30 0.0 0.0 0.00 0.00 0.00 99 1014.3
20260905055328 67 30 0.0 0.0 0.00 0.00 0.00 99 1014.4
20260905054828 67 30 0.0 0.0 0.00 0.00 0.00 99 1014.7
20260905054325 67 30 0.0 0.0 0.00 0.00 0.00 99 1014.7
20260905053824 67 30 0.0 0.0 0.00 0.00 0.00 99 1014.5
20260905053319 67 30 0.0 0.0 0.00 0.00 0.00 99 1014.6
20260905052814 67 30 0.0 0.0 0.00 0.00 0.00 99 1014.7
20260905052313 67 30 0.9 0.9 0.00 0.00 0.00 99 1014.8
20260905051808 67 30 0.0 0.0 0.00 0.00 0.00 99 1014.7
20260905051304 67 30 0.0 0.0 0.00 0.00 0.00 99 1014.7
20260905050801 67 30 0.0 0.0 0.00 0.00 0.00 99 1014.5
20260905050256 68 30 0.0 0.0 0.00 0.00 0.00 99 1014.5
20260905045751 68 30 0.0 0.0 0.00 0.00 0.00 99 1014.7
20260905045247 67 30 0.0 0.0 0.00 0.00 0.00 99 1014.6
20260905044742 67 30 0.0 0.0 0.00 0.00 0.00 99 1014.7
20260905044237 67 30 0.0 0.0 0.00 0.00 0.00 99 1014.6
20260905043736 67 30 0.0 0.0 0.00 0.00 0.00 99 1014.6
20260905043235 67 30 0.0 0.0 0.00 0.00 0.00 99 1014.8
20260905042731 67 30 0.0 0.0 0.00 0.00 0.00 99 1014.8
20260905042229 67 30 0.0 0.0 0.00 0.00 0.00 99 1014.7
20260905041726 67 30 0.0 0.0 0.00 0.00 0.00 99 1014.6
20260905041221 67 30 0.0 0.0 0.00 0.00 0.00 99 1014.6
20260905040716 67 30 0.0 0.0 0.00 0.00 0.00 99 1014.7
20260905040214 67 30 0.0 0.0 0.00 0.00 0.00 99 1014.7
20260905035709 67 30 0.0 0.0 0.00 0.09 0.09 99 1014.6
20260905035206 67 30 0.0 0.0 0.00 0.09 0.09 99 1014.8
20260905034702 67 30 0.9 0.0 0.00 0.09 0.09 98 1014.7
20260905034201 68 30 0.0 0.0 0.00 0.09 0.09 98 1014.7
20260905033700 68 30 0.0 0.0 0.00 0.09 0.09 98 1014.6
20260905033156 68 30 0.0 0.0 0.00 0.09 0.09 98 1014.6
20260905032655 68 30 0.0 0.0 0.00 0.09 0.09 98 1014.4
20260905032156 68 30 0.0 0.0 0.00 0.09 0.09 98 1014.7
20260905031652 68 30 0.0 0.0 0.00 0.09 0.09 98 1014.7
20260905031147 68 30 0.0 0.0 0.00 0.09 0.09 98 1014.6
20260905030642 68 30 0.0 0.0 0.00 0.09 0.09 98 1014.7
20260905030137 68 30 0.0 0.0 0.00 0.09 0.09 98 1014.6
20260905025632 68 30 0.0 0.0 0.00 0.09 0.09 98 1014.7
20260905025128 68 30 0.0 0.0 0.00 0.09 0.09 98 1014.8
20260905024623 68 30 0.0 0.0 0.00 0.09 0.09 98 1014.7
20260905024119 68 30 0.0 0.0 0.00 0.09 0.09 98 1014.8
20260905023614 69 30 0.0 0.0 0.00 0.09 0.09 98 1014.8
20260905023108 69 30 0.0 0.0 0.00 0.09 0.09 98 1014.9
20260905022607 69 30 0.0 0.0 0.00 0.09 0.09 98 1014.8
20260905022103 69 30 0.0 0.0 0.00 0.09 0.09 98 1014.9
20260905021602 69 30 0.0 0.0 0.00 0.09 0.09 98 1014.9
20260905021058 69 30 0.0 0.0 0.00 0.09 0.09 98 1015.0
20260905020557 69 30 0.0 0.0 0.00 0.09 0.09 98 1015.0
20260905020053 69 30 0.0 0.0 0.00 0.09 0.09 98 1015.0
20260905015550 69 30 0.0 0.0 0.00 0.09 0.09 98 1015.0
20260905015045 69 30 0.0 0.0 0.00 0.09 0.09 97 1014.9
20260905014540 69 30 0.0 0.0 0.00 0.09 0.09 97 1014.8
20260905014036 70 30 0.0 0.0 0.00 0.09 0.09 97 1014.8
20260905013532 70 30 0.0 0.0 0.00 0.09 0.09 97 1014.8
20260905013027 70 30 0.0 0.0 0.00 0.09 0.09 97 1014.8
20260905012521 70 30 0.0 0.0 0.00 0.09 0.09 97 1014.6
20260905012019 70 30 0.0 0.0 0.00 0.09 0.09 97 1014.7
20260905011515 70 30 0.0 0.0 0.00 0.09 0.09 97 1014.8
20260905011010 70 30 0.0 0.0 0.00 0.09 0.09 97 1014.7
20260905010509 71 30 0.0 0.0 0.00 0.09 0.09 96 1014.8
20260905010006 71 30 0.0 0.0 0.00 0.09 0.09 96 1014.8
20260905005501 71 30 0.9 0.9 0.00 0.09 0.09 96 1014.8
20260905004956 71 30 0.0 0.0 0.00 0.09 0.09 96 1014.8
20260905004451 71 30 0.0 0.0 0.00 0.09 0.09 96 1014.8
20260905003946 71 30 0.0 0.0 0.00 0.09 0.09 95 1014.6
20260905003442 71 30 0.0 0.0 0.00 0.09 0.09 95 1014.7
20260905002937 72 30 0.0 0.9 0.00 0.09 0.09 95 1014.5
20260905002437 72 30 0.0 0.0 0.00 0.09 0.09 94 1014.6
20260905001931 72 30 0.9 0.9 0.00 0.09 0.09 94 1014.4
20260905001427 72 30 0.0 0.0 0.00 0.09 0.09 93 1014.5
20260905000921 73 30 0.9 0.9 0.00 0.09 0.09 93 1014.4
20260905000417 73 30 0.0 0.0 0.00 0.09 0.09 93 1014.5
20260904235912 73 30 1.7 2.6 0.00 0.09 0.09 92 1014.7
20260904235408 73 30 0.0 0.0 0.00 0.09 0.09 91 1014.6
20260904234902 74 30 0.9 0.9 0.00 0.09 0.09 91 1014.6
20260904234356 74 105 0.0 0.0 0.00 0.09 0.09 90 1014.3
20260904233852 74 273 0.0 0.0 0.00 0.09 0.09 89 1014.5
20260904233348 75 273 0.9 0.9 0.00 0.09 0.09 88 1014.8
20260904232844 75 273 0.0 0.0 0.00 0.09 0.09 88 1014.8
20260904232341 75 273 0.0 0.0 0.00 0.09 0.09 88 1015.1
20260904231836 75 273 0.0 0.0 0.00 0.09 0.09 88 1015.2
20260904231331 75 273 0.0 0.9 0.00 0.09 0.09 87 1015.2
20260904230826 76 273 0.9 0.9 0.00 0.09 0.09 85 1015.2
20260904230325 76 273 0.0 0.0 0.00 0.09 0.09 84 1015.0
20260904225820 76 273 0.0 0.0 0.00 0.09 0.09 85 1015.0
20260904225318 76 273 0.0 0.0 0.00 0.09 0.09 85 1014.7
20260904224817 76 273 0.0 0.9 0.00 0.09 0.09 85 1014.7
20260904224314 77 273 0.0 0.9 0.00 0.09 0.09 85 1014.6
20260904223813 77 273 0.0 0.9 0.00 0.09 0.09 83 1014.7
20260904223307 77 273 0.0 0.0 0.00 0.09 0.09 82 1014.6
20260904222804 77 273 0.0 0.0 0.00 0.09 0.09 82 1014.5
20260904222259 77 272 0.0 0.0 0.00 0.09 0.09 81 1014.4
20260904221758 77 320 0.0 0.0 0.00 0.09 0.09 82 1014.4
20260904221253 78 320 0.0 0.9 0.00 0.09 0.09 81 1014.3
20260904220749 78 320 0.0 0.0 0.00 0.09 0.09 81 1014.1
20260904220247 77 320 0.0 0.9 0.00 0.09 0.09 79 1013.9
20260904215743 78 104 0.9 0.9 0.00 0.09 0.09 79 1013.9
20260904215238 77 105 0.0 0.9 0.00 0.09 0.09 79 1013.9
20260904214734 77 269 0.0 0.9 0.00 0.09 0.09 79 1013.9
20260904214229 77 66 0.0 0.9 0.00 0.09 0.09 79 1013.8
20260904213727 77 135 1.7 0.9 0.00 0.09 0.09 79 1013.7
20260904213224 77 270 2.6 4.3 0.00 0.09 0.09 79 1013.8
20260904212719 77 248 0.9 3.5 0.00 0.09 0.09 80 1013.7
20260904212214 77 160 0.0 0.9 0.00 0.09 0.09 79 1013.5
20260904211714 77 229 0.9 0.9 0.00 0.09 0.09 79 1013.5
20260904211208 78 310 2.6 2.6 0.00 0.09 0.09 79 1013.4
20260904210703 78 223 0.0 3.5 0.00 0.09 0.09 77 1013.2
20260904210158 78 288 0.0 0.9 0.00 0.09 0.09 79 1013.3
20260904205654 78 145 0.0 0.9 0.00 0.09 0.09 79 1013.3
20260904205150 78 137 1.7 2.6 0.00 0.09 0.09 78 1012.9
20260904204646 78 193 0.9 2.6 0.00 0.09 0.09 78 1013.3
20260904204142 78 226 2.6 3.5 0.00 0.09 0.09 75 1013.3
20260904203637 78 131 0.0 2.6 0.00 0.09 0.09 74 1013.3
20260904203134 79 256 1.7 2.6 0.00 0.09 0.09 72 1013.8
20260904202630 80 158 4.3 4.3 0.00 0.09 0.09 72 1013.8
20260904202126 79 174 2.6 3.5 0.00 0.09 0.09 74 1013.9
20260904201626 80 63 1.7 2.6 0.00 0.09 0.09 74 1014.1
20260904201121 79 51 0.9 2.6 0.00 0.09 0.09 73 1014.1
20260904200615 80 87 0.9 2.6 0.00 0.09 0.09 73 1014.3
20260904200110 79 15 1.7 3.5 0.00 0.09 0.09 73 1014.3
20260904195609 79 345 0.9 2.6 0.00 0.09 0.09 74 1014.6
20260904195107 80 345 1.7 2.6 0.00 0.09 0.09 72 1014.6
20260904194602 79 300 1.7 3.5 0.00 0.09 0.09 75 1014.7
20260904194057 78 339 2.6 3.5 0.00 0.09 0.09 77 1014.8
20260904193551 77 252 2.6 2.6 0.00 0.09 0.09 76 1015.2
20260904193048 77 4 2.6 4.3 0.00 0.09 0.09 78 1015.1
20260904192548 78 349 0.9 3.5 0.00 0.09 0.09 78 1015.0
20260904192043 78 342 2.6 3.5 0.00 0.09 0.09 80 1014.9
20260904191540 78 265 1.7 3.5 0.00 0.09 0.09 78 1014.7
20260904191036 77 42 0.0 2.6 0.00 0.09 0.09 81 1014.7
20260904190532 77 277 1.7 2.6 0.00 0.09 0.09 82 1014.9
20260904190028 76 227 0.0 0.9 0.00 0.09 0.09 83 1014.9
20260904185524 77 257 1.7 3.5 0.00 0.09 0.09 81 1015.2
20260904185018 77 344 0.0 0.9 0.00 0.09 0.09 80 1015.1
20260904184513 77 20 0.0 4.3 0.00 0.09 0.09 80 1015.2
20260904184008 77 8 0.0 2.6 0.00 0.09 0.09 79 1015.0
20260904183503 78 7 0.9 2.6 0.00 0.09 0.09 79 1015.5
20260904182958 79 47 0.0 2.6 0.00 0.09 0.09 78 1015.7
20260904182454 79 31 0.9 2.6 0.00 0.09 0.09 78 1015.6
20260904181953 77 17 3.5 4.3 0.00 0.09 0.09 81 1016.0
20260904181449 77 7 4.3 6.1 0.00 0.09 0.09 80 1016.2
20260904180944 77 348 2.6 6.1 0.00 0.09 0.09 83 1016.4
20260904180438 77 271 2.6 4.3 0.00 0.09 0.09 81 1016.4
20260904175938 76 45 0.0 4.3 0.00 0.09 0.09 84 1016.4
20260904175437 75 356 5.2 8.7 0.00 0.09 0.09 83 1016.5
20260904174932 75 223 4.3 7.0 0.00 0.09 0.09 85 1016.5
20260904174427 76 336 7.8 9.6 0.00 0.09 0.09 83 1016.9
20260904173923 77 311 2.6 8.7 0.00 0.09 0.09 83 1016.9
20260904173413 77 343 0.9 2.6 0.00 0.09 0.09 85 1016.6
20260904172908 75 349 2.6 3.5 0.00 0.09 0.09 86 1016.6
20260904172402 75 334 0.9 3.5 0.00 0.09 0.09 88 1016.9
20260904171857 75 339 1.7 2.6 0.00 0.09 0.09 89 1016.6
20260904171352 75 18 1.7 3.5 0.00 0.09 0.09 89 1016.6
20260904170849 76 331 5.2 7.0 0.00 0.09 0.09 86 1016.7
20260904170344 75 6 0.9 0.9 0.00 0.09 0.09 88 1016.9
20260904165838 75 358 0.9 2.6 0.00 0.09 0.09 88 1016.9
20260904165337 75 356 0.0 0.9 0.00 0.09 0.09 90 1016.7
20260904164832 75 2 1.7 0.9 0.00 0.09 0.09 89 1016.7
20260904164326 75 21 1.7 3.5 0.00 0.09 0.09 88 1017.0
20260904163824 75 6 6.1 7.0 0.00 0.09 0.09 87 1017.0
20260904163323 75 334 4.3 6.1 0.00 0.09 0.09 88 1017.3
20260904162822 76 281 5.2 6.1 0.00 0.09 0.09 87 1017.0
20260904162318 75 300 2.6 4.3 0.00 0.09 0.09 90 1017.1
20260904161814 75 34 2.6 4.3 0.00 0.09 0.09 90 1016.9
20260904161314 75 4 4.3 4.3 0.00 0.09 0.09 90 1016.7
20260904160809 74 293 0.9 2.6 0.00 0.09 0.09 93 1016.4
20260904160304 73 169 2.6 4.3 0.00 0.09 0.09 95 1016.3
20260904155758 73 128 2.6 3.5 0.00 0.09 0.09 94 1016.4
20260904155258 72 157 1.7 3.5 0.00 0.09 0.09 95 1016.3
20260904154756 72 153 3.5 6.1 0.00 0.09 0.09 96 1016.0
20260904154252 71 121 2.6 2.6 0.00 0.09 0.09 98 1016.4
20260904153747 71 137 3.5 3.5 0.00 0.09 0.09 98 1016.6
20260904153243 71 57 0.9 0.9 0.00 0.09 0.09 98 1016.7
20260904152739 71 56 0.9 0.9 0.00 0.09 0.09 98 1016.9
20260904152234 70 56 0.9 2.6 0.07 0.09 0.09 98 1016.9
20260904151729 70 64 0.9 0.9 0.07 0.09 0.09 98 1016.9
20260904151228 70 62 0.0 0.0 0.07 0.08 0.08 98 1016.9
20260904150724 70 62 0.0 0.9 0.12 0.08 0.08 98 1016.9
20260904150219 70 115 0.0 0.9 0.12 0.07 0.07 98 1017.2
20260904145717 70 119 0.9 2.6 0.19 0.06 0.06 97 1017.2
20260904145213 70 58 0.0 0.9 0.12 0.04 0.04 97 1017.4
20260904144708 70 39 0.9 0.9 0.05 0.03 0.03 97 1017.3
20260904144204 70 24 0.0 0.0 0.07 0.02 0.02 97 1017.3
20260904143659 70 20 1.7 2.6 0.07 0.02 0.02 97 1017.1
20260904143156 70 2 0.0 0.0 0.00 0.01 0.01 97 1017.3
20260904142652 70 28 0.9 0.9 0.00 0.01 0.01 97 1017.0
20260904142148 70 20 0.0 0.0 0.00 0.01 0.01 97 1017.3
20260904141643 70 33 0.9 0.9 0.00 0.01 0.01 98 1017.3
20260904141138 71 25 0.9 0.0 0.00 0.01 0.01 98 1017.1
20260904140634 70 12 0.0 0.9 0.00 0.01 0.01 98 1017.1
20260904140133 70 8 0.0 0.9 0.00 0.01 0.01 98 1017.1
20260904135627 71 9 0.9 0.9 0.00 0.01 0.01 98 1017.0
20260904135123 70 9 0.0 0.9 0.00 0.01 0.01 99 1016.7
20260904134619 70 3 0.0 0.0 0.00 0.01 0.01 99 1016.6
20260904134117 70 341 1.7 0.9 0.00 0.01 0.01 99 1016.5
20260904133613 70 156 0.9 0.9 0.00 0.01 0.01 99 1016.3
20260904133109 70 127 0.9 0.9 0.00 0.01 0.01 99 1016.2
20260904132608 69 126 0.9 0.9 0.00 0.01 0.01 99 1016.1
20260904132103 69 126 0.0 0.0 0.00 0.01 0.01 99 1016.2
20260904131603 69 125 0.0 0.9 0.00 0.01 0.01 99 1016.0
20260904131058 69 112 0.0 0.0 0.00 0.01 0.01 99 1016.2
20260904130558 69 112 0.9 0.9 0.00 0.01 0.01 99 1016.4
20260904130053 69 113 0.0 0.0 0.00 0.01 0.01 99 1016.4
20260904125549 68 113 0.0 0.9 0.00 0.01 0.01 99 1016.1
20260904125044 69 112 1.7 2.6 0.00 0.01 0.01 99 1016.0
20260904124539 68 110 0.0 0.0 0.00 0.01 0.01 99 1016.2
20260904124034 68 109 0.9 2.6 0.00 0.01 0.01 99 1016.3